{"data":{"norad_id":59146,"epoch":"2026-09-19T21:37:50.890080Z","epoch_age_seconds":66173,"freshness":"FRESH","line1":"1 59146U 24043BA  26262.90128345  .00043202  00000+0  39051-3 0  9999","line2":"2 59146  97.5448  61.0536 0003516 186.8326 173.2887 15.67993754142845","mean_motion":15.67993754,"eccentricity":0.0003516,"inclination_deg":97.5448,"raan_deg":61.0536,"arg_perigee_deg":186.8326,"mean_anomaly_deg":173.2887,"bstar":0.00039051,"rev_number":14284,"period_min":91.837100519471,"perigee_km":362.27170738184,"apogee_km":367.01322990419,"semimajor_km":6742.779468643,"source":"CELESTRAK","updated_at":"2026-09-20T09:00:34.870832Z"}}